Change the Weather History Date:

Saturday, February 9, 2013

  Actual Average Record
Temperature  
Mean Temperature 57 °F 47 °F  
Max Temperature 64 °F 59 °F 87 °F (1976)
Min Temperature 50 °F 35 °F 9 °F (2011)
Degree Days  
Heating Degree Days 8 18  
Month to date heating degree days 87 166  
Since 1 July heating degree days 1506 1835  
Cooling Degree Days 0 0  
Month to date cooling degree days 0 0  
Year to date cooling degree days 6 1  
Growing Degree Days 7 (Base 50)    
Moisture  
Dew Point 48 °F    
Average Humidity 63    
Maximum Humidity 93    
Minimum Humidity 32    
Precipitation  
Precipitation 0.21 in 0.05 in 1.02 in (1898)
Month to date precipitation 0.21 0.39  
Year to date precipitation 1.52 1.41  
Sea Level Pressure  
Sea Level Pressure 29.78 in    
Wind  
Wind Speed 20 mph (SSE)    
Max Wind Speed 33 mph    
Max Gust Speed 39 mph    
Visibility 10 miles    
Events Rain    
T = Trace of Precipitation, MM = Missing Value Source: NWS Daily Summary

Daily Weather History Graph

Daily Weather History Graph

Search for Another Location

Airport or City:

Trip Planner

Search our weather history database for the weather conditions in past years. The results will help you decide how hot, cold, wet, or windy it might be!

Date:

Astronomy

Feb. 09, 2013 Rise Set
Actual Time 7:26 AM CST 6:19 PM CST
Civil Twilight 7:01 AM CST 6:45 PM CST
Nautical Twilight 6:32 AM CST 7:14 PM CST
Astronomical Twilight 6:03 AM CST 7:42 PM CST
Moon 6:40 AM CST (2/9) 6:02 PM CST (2/9)
Length of Visible Light 11h 43m
Length of Day
10h 53m
Waning Crescent, 0% of the Moon is Illuminated
Feb 9
Waning Crescent
Feb 10
New
Feb 17
First Quarter
Feb 25
Full
Mar 4
Last Quarter

Hourly Weather History & Observations

Time (CST) Temp. Dew Point Humidity Pressure Visibility Wind Dir Wind Speed Gust Speed Precip Events Conditions
12:52 AM 50.0 °F 23.0 °F 35% 30.01 in 10.0 mi SE 11.5 mph - N/A   Clear
1:52 AM 51.1 °F 23.0 °F 33% 30.00 in 10.0 mi SSE 13.8 mph - N/A   Clear
2:52 AM 51.1 °F 24.1 °F 35% 29.98 in 10.0 mi SSE 15.0 mph - N/A   Clear
3:52 AM 51.1 °F 27.0 °F 39% 29.96 in 10.0 mi SSE 13.8 mph - N/A   Clear
4:52 AM 51.1 °F 32.0 °F 48% 29.92 in 10.0 mi SE 17.3 mph 26.5 mph N/A   Clear
5:52 AM 51.1 °F 37.0 °F 59% 29.90 in 10.0 mi SE 17.3 mph 26.5 mph N/A   Partly Cloudy
6:52 AM 51.1 °F 39.0 °F 63% 29.88 in 10.0 mi SSE 19.6 mph 28.8 mph N/A   Partly Cloudy
7:52 AM 50.0 °F 39.9 °F 68% 29.89 in 10.0 mi SSE 20.7 mph 26.5 mph N/A   Clear
8:52 AM 51.1 °F 42.1 °F 71% 29.89 in 10.0 mi South 18.4 mph 28.8 mph N/A   Partly Cloudy
9:14 AM 53.6 °F 44.6 °F 72% 29.91 in 10.0 mi SSE 20.7 mph 32.2 mph N/A   Mostly Cloudy
9:52 AM 54.0 °F 45.0 °F 72% 29.88 in 10.0 mi South 21.9 mph 32.2 mph N/A   Overcast
10:52 AM 55.9 °F 48.0 °F 75% 29.84 in 10.0 mi SSE 26.5 mph 39.1 mph N/A   Overcast
11:52 AM 57.0 °F 48.9 °F 74% 29.82 in 10.0 mi South 24.2 mph 34.5 mph N/A   Overcast
12:52 PM 57.0 °F 50.0 °F 77% 29.79 in 10.0 mi South 19.6 mph 29.9 mph N/A   Overcast
1:52 PM 59.0 °F 51.1 °F 75% 29.75 in 10.0 mi SSE 21.9 mph 27.6 mph N/A   Overcast
3:52 PM 62.1 °F 54.0 °F 75% 29.67 in 10.0 mi SSE 27.6 mph 35.7 mph N/A   Mostly Cloudy
4:52 PM 61.0 °F 54.0 °F 78% 29.66 in 10.0 mi SSE 24.2 mph 28.8 mph N/A   Mostly Cloudy
5:52 PM 57.9 °F 55.0 °F 90% 29.66 in 10.0 mi SSE 20.7 mph - N/A   Partly Cloudy
6:52 PM 57.9 °F 55.9 °F 93% 29.65 in 10.0 mi SSE 28.8 mph 34.5 mph N/A   Clear
7:01 PM 59.0 °F 55.4 °F 88% 29.68 in 10.0 mi SSE 24.2 mph 34.5 mph N/A   Mostly Cloudy
7:23 PM 59.0 °F 55.4 °F 88% 29.68 in 10.0 mi SSE 23.0 mph 32.2 mph N/A   Mostly Cloudy
7:52 PM 59.0 °F 55.9 °F 90% 29.66 in 10.0 mi SSE 23.0 mph 28.8 mph N/A   Mostly Cloudy
8:32 PM 59.0 °F 55.4 °F 88% 29.70 in 10.0 mi SSE 18.4 mph - N/A   Mostly Cloudy
8:52 PM 59.0 °F 55.9 °F 90% 29.66 in 10.0 mi SSE 19.6 mph 26.5 mph N/A   Mostly Cloudy
9:08 PM 59.0 °F 55.4 °F 88% 29.67 in 10.0 mi SSE 19.6 mph 27.6 mph N/A   Scattered Clouds
9:31 PM 59.0 °F 55.4 °F 88% 29.66 in 10.0 mi SSE 17.3 mph - N/A   Mostly Cloudy
9:52 PM 61.0 °F 57.0 °F 87% 29.63 in 10.0 mi South 15.0 mph 21.9 mph N/A   Mostly Cloudy
10:52 PM 63.0 °F 57.9 °F 84% 29.67 in 10.0 mi SSW 18.4 mph 26.5 mph N/A   Mostly Cloudy
11:07 PM 62.6 °F 57.2 °F 82% 29.73 in 10.0 mi SW 18.4 mph 27.6 mph 0.00 in Rain Light Rain
11:38 PM 60.8 °F 57.2 °F 88% 29.73 in 2.5 mi SW 16.1 mph 26.5 mph 0.20 in Rain Heavy Rain
11:52 PM 61.0 °F 57.9 °F 90% 29.70 in 10.0 mi WSW 15.0 mph - 0.21 in Rain Light Rain